W5HKR Weather Reports


time (UTC)temp
F
wind
direction
speed
knots
gust
knots
rain 1hr
in
rain 24hr
in
rain mn
in
humidity
%
barometer
mb
20260507020825 66 265 7.8 8.7 0.00 0.00 0.00 80 984.4
20260507020322 65 260 7.0 10.4 0.00 0.00 0.00 91 990.6
20260507015754 65 268 6.1 8.7 0.00 0.00 0.00 91 990.6
20260507015324 66 258 6.1 8.7 0.00 0.00 0.00 79 983.7
20260507014823 65 277 6.1 7.8 0.00 0.00 0.00 91 990.6
20260507014323 65 269 7.0 8.7 0.00 0.00 0.00 91 990.6
20260507013955 66 265 7.8 8.7 0.00 0.00 0.00 79 983.7
20260507013822 66 268 7.0 10.4 0.00 0.00 0.00 79 984.1
20260507013323 66 266 6.1 8.7 0.00 0.00 0.00 78 984.1
20260507012823 66 271 7.8 7.8 0.00 0.00 0.00 78 983.7
20260507012322 67 264 7.8 10.4 0.00 0.00 0.00 78 983.7
20260507012153 67 266 7.0 10.4 0.00 0.00 0.00 78 983.7
20260507011825 67 278 7.0 8.7 0.00 0.00 0.00 78 983.8
20260507011323 67 272 7.0 8.7 0.00 0.00 0.00 78 983.8
20260507010823 65 271 7.0 8.7 0.00 0.00 0.00 91 990.6
20260507010356 65 271 7.8 8.7 0.00 0.00 0.00 91 990.6
20260507010325 67 266 7.0 8.7 0.00 0.00 0.00 77 983.2
20260507005822 67 272 7.0 10.4 0.00 0.00 0.00 77 983.0
20260507005322 65 268 7.8 10.4 0.00 0.00 0.00 91 990.6
20260507004824 68 271 7.0 11.3 0.00 0.00 0.00 76 982.7
20260507004554 65 272 7.0 11.3 0.00 0.00 0.00 91 990.6
20260507004323 68 268 7.8 10.4 0.00 0.00 0.00 76 983.0
20260507003824 65 269 7.0 8.7 0.00 0.00 0.00 91 990.6
20260507002754 65 263 7.0 10.4 0.00 0.00 0.00 91 990.6
20260507002324 69 272 7.0 10.4 0.00 0.00 0.00 75 983.4
20260507001824 69 275 8.7 10.4 0.00 0.00 0.00 75 983.0
20260507001322 70 262 6.1 10.4 0.00 0.00 0.00 74 982.7
20260507000955 65 263 8.7 11.3 0.00 0.00 0.00 91 990.6
20260507000823 70 272 7.0 10.4 0.00 0.00 0.00 73 982.7
20260507000324 65 271 8.7 11.3 0.00 0.00 0.00 91 990.6
20260506235824 65 272 8.7 10.4 0.00 0.00 0.00 91 990.6
20260506235325 65 276 8.7 11.3 0.00 0.00 0.00 91 990.6
20260506235155 65 274 8.7 11.3 0.00 0.00 0.00 91 990.6
20260506234323 73 256 8.7 10.4 0.00 0.00 0.00 71 982.7
20260506233824 65 269 8.7 11.3 0.00 0.00 0.00 91 990.6
20260506233355 65 277 8.7 11.3 0.00 0.00 0.00 91 990.6
20260506233325 65 275 8.7 11.3 0.00 0.00 0.00 91 990.6
20260506232824 65 269 8.7 10.4 0.00 0.00 0.00 91 990.6
20260506232324 65 273 8.7 11.3 0.00 0.00 0.00 91 990.6
20260506231823 75 266 8.7 11.3 0.00 0.00 0.00 70 982.2
20260506231554 75 269 7.8 11.3 0.00 0.00 0.00 69 982.1
20260506231324 75 271 8.7 10.4 0.00 0.00 0.00 69 982.1
20260506230823 65 272 7.8 12.2 0.00 0.00 0.00 91 990.6
20260506225754 77 271 6.1 11.3 0.00 0.00 0.00 68 982.0
20260506225324 77 272 10.4 12.2 0.00 0.00 0.00 69 981.6
20260506224824 65 266 7.8 12.2 0.00 0.00 0.00 91 990.6
20260506224323 65 267 10.4 11.3 0.00 0.00 0.00 91 990.6
20260506223955 65 268 7.8 13.0 0.00 0.00 0.00 91 990.6
20260506223824 78 278 8.7 13.0 0.00 0.00 0.00 68 981.7
20260506223324 79 265 10.4 11.3 0.00 0.00 0.00 69 981.4
20260506222824 65 275 10.4 11.3 0.00 0.00 0.00 91 990.6
20260506222324 80 266 10.4 11.3 0.00 0.00 0.00 69 980.8
20260506222153 79 268 8.7 11.3 0.00 0.00 0.00 69 981.3
20260506221823 80 268 7.0 11.3 0.00 0.00 0.00 68 981.2
20260506221323 80 265 8.7 13.0 0.00 0.00 0.00 68 981.2
20260506220823 81 268 11.3 13.0 0.00 0.00 0.00 69 981.1
20260506220355 81 268 8.7 12.2 0.00 0.00 0.00 69 981.1
20260506220324 82 269 8.7 12.2 0.00 0.00 0.00 69 981.2
20260506215824 65 272 10.4 11.3 0.00 0.00 0.00 91 990.6
20260506215323 65 263 7.8 13.0 0.00 0.00 0.00 91 990.6
20260506214824 65 266 8.7 12.2 0.00 0.00 0.00 91 990.6
20260506214554 65 267 8.7 11.3 0.00 0.00 0.00 91 990.6
20260506214324 65 273 11.3 13.0 0.00 0.00 0.00 91 990.6
20260506213825 65 270 10.4 12.2 0.00 0.00 0.00 91 990.6
20260506213323 65 261 7.8 12.2 0.00 0.00 0.00 91 990.6
20260506212754 82 268 10.4 13.0 0.00 0.00 0.00 71 981.0
20260506212324 82 270 8.7 11.3 0.00 0.00 0.00 71 981.0
20260506211823 65 265 10.4 11.3 0.00 0.00 0.00 91 990.6
20260506211324 65 274 8.7 12.2 0.00 0.00 0.00 91 990.6
20260506210955 65 270 10.4 13.0 0.00 0.00 0.00 91 990.6
20260506210825 65 268 10.4 13.0 0.00 0.00 0.00 91 990.6
20260506210325 85 266 12.2 12.2 0.00 0.00 0.00 69 981.4
20260506205823 85 270 11.3 12.2 0.00 0.00 0.00 67 981.1
20260506205323 85 263 11.3 12.2 0.00 0.00 0.00 69 980.8
20260506205155 65 272 8.7 11.3 0.00 0.00 0.00 91 990.6
20260506204823 85 277 11.3 12.2 0.00 0.00 0.00 68 981.4
20260506204323 65 269 11.3 12.2 0.00 0.00 0.00 91 990.6
20260506203823 86 273 11.3 12.2 0.00 0.00 0.00 69 981.4
20260506203355 86 268 11.3 12.2 0.00 0.00 0.00 67 981.0
20260506203324 86 269 11.3 12.2 0.00 0.00 0.00 67 981.0
20260506202824 65 271 10.4 12.2 0.00 0.00 0.00 91 990.6
20260506202325 87 272 11.3 12.2 0.00 0.00 0.00 64 981.2
20260506201823 88 269 12.2 13.0 0.00 0.00 0.00 66 981.7
20260506201554 65 269 12.2 13.0 0.00 0.00 0.00 91 990.6
20260506200824 65 267 12.2 13.0 0.00 0.00 0.00 91 990.6
20260506200324 87 269 13.0 13.9 0.00 0.00 0.00 62 981.4
20260506195825 65 265 12.2 13.0 0.00 0.00 0.00 91 990.6
20260506195754 65 265 12.2 13.0 0.00 0.00 0.00 91 990.6
20260506195323 65 266 12.2 13.0 0.00 0.00 0.00 91 990.6
20260506194825 65 273 12.2 13.0 0.00 0.00 0.00 91 990.6
20260506194325 87 261 12.2 13.0 0.00 0.00 0.00 64 981.4
20260506193954 65 267 11.3 13.0 0.00 0.00 0.00 91 990.6
20260506193824 86 273 11.3 13.0 0.00 0.00 0.00 65 981.6
20260506193324 65 266 11.3 13.0 0.00 0.00 0.00 91 990.6
20260506192824 86 268 11.3 12.2 0.00 0.00 0.00 67 982.0
20260506192325 65 269 12.2 13.9 0.00 0.00 0.00 91 990.6
20260506192154 65 267 12.2 18.2 0.00 0.00 0.00 91 990.6
20260506191823 85 267 12.2 14.8 0.00 0.00 0.00 69 981.6
20260506191325 85 268 12.2 19.1 0.00 0.00 0.00 68 982.0
20260506190355 65 270 10.4 13.0 0.00 0.00 0.00 91 990.6
20260506190325 86 267 11.3 13.9 0.00 0.00 0.00 69 981.7
20260506185823 87 269 13.9 14.8 0.00 0.00 0.00 69 981.7
20260506185323 86 260 12.2 13.9 0.00 0.00 0.00 69 981.8
20260506184825 86 268 12.2 13.0 0.00 0.00 0.00 71 981.7
20260506184555 65 268 12.2 12.2 0.00 0.00 0.00 91 990.6
20260506184325 86 268 11.3 13.0 0.00 0.00 0.00 71 982.1
20260506183824 86 264 12.2 13.9 0.00 0.00 0.00 73 982.3
20260506183324 85 270 11.3 13.0 0.00 0.00 0.00 72 981.7
20260506182755 65 266 11.3 13.9 0.00 0.00 0.00 91 990.6
20260506182325 65 275 10.4 13.9 0.00 0.00 0.00 91 990.6
20260506181823 83 270 10.4 12.2 0.00 0.00 0.00 74 982.2
20260506181324 65 269 11.3 13.0 0.00 0.00 0.00 91 990.6
20260506180955 83 267 11.3 12.2 0.00 0.00 0.00 74 982.7
20260506180825 83 272 11.3 11.3 0.00 0.00 0.00 74 982.4
20260506180323 83 271 10.4 12.2 0.00 0.00 0.00 75 982.2
20260506175826 82 271 10.4 12.2 0.00 0.00 0.00 77 982.4
20260506175324 65 271 10.4 13.0 0.00 0.00 0.00 91 990.6
20260506175155 65 262 10.4 13.0 0.00 0.00 0.00 91 990.6
20260506174825 65 265 10.4 12.2 0.00 0.00 0.00 91 990.6
20260506174323 65 269 11.3 13.0 0.00 0.00 0.00 91 990.6
20260506173825 82 263 10.4 12.2 0.00 0.00 0.00 79 982.4
20260506173354 81 271 10.4 12.2 0.00 0.00 0.00 78 982.4
20260506173323 81 271 10.4 11.3 0.00 0.00 0.00 79 982.6
20260506172824 65 271 10.4 11.3 0.00 0.00 0.00 91 990.6
20260506172325 81 274 8.7 11.3 0.00 0.00 0.00 79 983.0
20260506171823 65 270 10.4 12.2 0.00 0.00 0.00 91 990.6
20260506171554 81 265 10.4 12.2 0.00 0.00 0.00 80 982.7
20260506171324 65 269 10.4 12.2 0.00 0.00 0.00 91 990.6
20260506170824 80 272 8.7 11.3 0.00 0.00 0.00 81 983.0
20260506170323 80 273 10.4 11.3 0.00 0.00 0.00 81 982.7
20260506165754 80 269 10.4 11.3 0.00 0.00 0.00 83 982.3
20260506165324 65 269 11.3 12.2 0.00 0.00 0.00 91 990.6
20260506164825 65 269 10.4 11.3 0.00 0.00 0.00 91 990.6
20260506164325 79 270 8.7 11.3 0.00 0.00 0.00 83 982.7
20260506163955 79 269 8.7 11.3 0.00 0.00 0.00 84 982.7
20260506163825 79 268 10.4 11.3 0.00 0.00 0.00 85 982.5
20260506163325 65 267 8.7 11.3 0.00 0.00 0.00 91 990.6
20260506162824 78 266 7.8 12.2 0.00 0.00 0.00 84 983.1
20260506162325 78 271 7.8 12.2 0.00 0.00 0.00 85 982.9
20260506162155 78 273 7.8 12.2 0.00 0.00 0.00 85 982.7
20260506161825 78 273 10.4 10.4 0.00 0.00 0.00 86 982.8
20260506161325 65 269 8.7 11.3 0.00 0.00 0.00 91 990.6
20260506160825 65 267 8.7 11.3 0.00 0.00 0.00 91 990.6
20260506160354 65 269 8.7 11.3 0.00 0.00 0.00 91 990.6
20260506160325 65 271 8.7 11.3 0.00 0.00 0.00 91 990.6
20260506155825 65 272 8.7 10.4 0.00 0.00 0.00 91 990.6
20260506155325 77 267 8.7 11.3 0.00 0.00 0.00 89 982.5
20260506154824 77 269 10.4 10.4 0.00 0.00 0.00 89 982.5
20260506154555 65 269 8.7 10.4 0.00 0.00 0.00 91 990.6
20260506154325 77 271 8.7 10.4 0.00 0.00 0.00 88 982.4
20260506153825 65 269 8.7 10.4 0.00 0.00 0.00 91 990.6
20260506153325 65 269 8.7 11.3 0.00 0.00 0.00 91 990.6
20260506152755 65 271 10.4 10.4 0.00 0.00 0.00 91 990.6
20260506152324 65 269 8.7 10.4 0.00 0.00 0.00 91 990.6
20260506151824 65 270 8.7 10.4 0.00 0.00 0.00 91 990.6
20260506151324 76 271 8.7 10.4 0.00 0.00 0.00 89 981.8
20260506150955 76 269 8.7 10.4 0.00 0.00 0.00 89 981.7
20260506150824 65 268 8.7 10.4 0.00 0.00 0.00 91 990.6
20260506150325 65 266 8.7 10.4 0.00 0.00 0.00 91 990.6
20260506145824 76 271 8.7 10.4 0.00 0.00 0.00 89 982.0
20260506145324 65 271 10.4 10.4 0.00 0.00 0.00 91 990.6
20260506145155 76 269 8.7 10.4 0.00 0.00 0.00 90 982.0
20260506144823 76 270 8.7 10.4 0.00 0.00 0.00 90 981.7
20260506144325 65 269 8.7 10.4 0.00 0.00 0.00 91 990.6
20260506143824 76 272 8.7 10.4 0.00 0.00 0.00 90 982.0
20260506143355 75 269 8.7 10.4 0.00 0.00 0.00 90 981.9
20260506143324 75 269 7.8 10.4 0.00 0.00 0.00 90 982.1
20260506142325 76 267 8.7 10.4 0.00 0.00 0.00 89 981.4
20260506141823 76 269 8.7 10.4 0.00 0.00 0.00 90 981.4
20260506141556 76 268 8.7 10.4 0.00 0.00 0.00 90 981.2
20260506141324 76 270 10.4 11.3 0.00 0.00 0.00 90 981.6
20260506140824 76 269 8.7 10.4 0.00 0.00 0.00 90 981.3
20260506140324 65 265 8.7 10.4 0.00 0.00 0.00 91 990.6
20260506135754 75 267 8.7 11.3 0.00 0.00 0.00 91 980.7
20260506135323 75 267 8.7 10.4 0.00 0.00 0.00 91 980.7
20260506134824 75 272 10.4 10.4 0.00 0.00 0.00 91 980.7
20260506134324 65 269 8.7 10.4 0.00 0.00 0.00 91 990.6
20260506133955 65 267 8.7 10.4 0.00 0.00 0.00 91 990.6
20260506133824 75 271 8.7 11.3 0.00 0.00 0.00 91 980.7
20260506132154 75 269 10.4 10.4 0.00 0.00 0.00 91 980.7
20260506131825 75 264 8.7 10.4 0.00 0.00 0.00 91 980.7
20260506131324 65 265 8.7 10.4 0.00 0.00 0.00 91 990.6
20260506130825 65 271 10.4 11.3 0.00 0.00 0.00 91 990.6
20260506130355 65 268 8.7 10.4 0.00 0.00 0.00 91 990.6
20260506130325 75 269 7.8 10.4 0.00 0.00 0.00 92 980.6
20260506125824 75 267 8.7 10.4 0.00 0.00 0.00 92 980.4
20260506125324 65 274 8.7 10.4 0.00 0.00 0.00 91 990.6
20260506124823 74 265 8.7 10.4 0.00 0.00 0.00 92 981.0
20260506124555 74 273 7.8 10.4 0.00 0.00 0.00 92 980.4
20260506124324 65 264 8.7 10.4 0.00 0.00 0.00 91 990.6
20260506123824 74 267 8.7 10.4 0.00 0.00 0.00 92 980.6
20260506123323 65 266 7.8 10.4 0.00 0.00 0.00 91 990.6
20260506122825 65 263 8.7 10.4 0.00 0.00 0.00 91 990.6
20260506122754 65 263 8.7 10.4 0.00 0.00 0.00 91 990.6
20260506122325 65 270 8.7 11.3 0.00 0.00 0.00 91 990.6
20260506121824 65 269 8.7 10.4 0.00 0.00 0.00 91 990.6
20260506121324 65 271 8.7 10.4 0.00 0.00 0.00 91 990.6
20260506120954 74 267 8.7 10.4 0.00 0.00 0.00 92 980.4
20260506120323 65 268 8.7 10.4 0.00 0.00 0.00 91 990.6
20260506115824 74 267 8.7 10.4 0.00 0.00 0.00 92 980.6
20260506115324 65 271 8.7 10.4 0.00 0.00 0.00 91 990.6
20260506115155 65 272 8.7 10.4 0.00 0.00 0.00 91 990.6
20260506114824 75 270 8.7 11.3 0.00 0.00 0.00 92 980.0
20260506114326 75 269 8.7 10.4 0.00 0.00 0.00 91 980.0
20260506113825 75 267 8.7 10.4 0.00 0.00 0.00 91 980.4
20260506113356 65 269 8.7 10.4 0.00 0.00 0.00 91 990.6
20260506113325 75 271 8.7 10.4 0.00 0.00 0.00 91 980.4
20260506112824 65 264 8.7 10.4 0.00 0.00 0.00 91 990.6
20260506112325 75 269 8.7 10.4 0.00 0.00 0.00 91 980.2
20260506111824 65 269 8.7 10.4 0.00 0.00 0.00 91 990.6
20260506111554 65 269 8.7 10.4 0.00 0.00 0.00 91 990.6
20260506111326 65 271 8.7 10.4 0.00 0.00 0.00 91 990.6
20260506110824 75 268 8.7 10.4 0.00 0.00 0.00 91 980.0
20260506110324 75 269 8.7 10.4 0.00 0.00 0.00 91 979.9
20260506105756 65 269 8.7 10.4 0.00 0.00 0.00 91 990.6
20260506105325 75 269 8.7 10.4 0.00 0.00 0.00 91 980.0
20260506104824 65 269 8.7 10.4 0.00 0.00 0.00 91 990.6
20260506104325 65 267 8.7 10.4 0.00 0.00 0.00 91 990.6
20260506103955 75 267 8.7 10.4 0.00 0.00 0.00 90 980.0
20260506103824 75 269 8.7 10.4 0.00 0.00 0.00 90 979.7
20260506103324 75 269 8.7 10.4 0.00 0.00 0.00 90 980.0
20260506102825 65 267 8.7 10.4 0.00 0.00 0.00 91 990.6
20260506102324 75 269 8.7 10.4 0.00 0.00 0.00 90 980.0
20260506102155 75 271 8.7 10.4 0.00 0.00 0.00 90 979.8
20260506101825 65 270 8.7 10.4 0.00 0.00 0.00 91 990.6
20260506101324 75 269 8.7 10.4 0.00 0.00 0.00 90 980.0
20260506100825 75 268 8.7 11.3 0.00 0.00 0.00 90 979.7
20260506100355 75 268 8.7 10.4 0.00 0.00 0.00 90 979.8
20260506100324 75 268 8.7 11.3 0.00 0.00 0.00 90 979.7
20260506095824 75 271 8.7 12.2 0.00 0.00 0.00 90 980.0
20260506095325 75 272 8.7 10.4 0.00 0.00 0.00 90 980.0
20260506094824 75 271 11.3 12.2 0.00 0.00 0.00 90 979.7
20260506094555 65 266 10.4 12.2 0.00 0.00 0.00 91 990.6
20260506094326 75 272 8.7 11.3 0.00 0.00 0.00 90 979.7
20260506093325 65 271 10.4 12.2 0.00 0.00 0.00 91 990.6
20260506092755 65 268 8.7 10.4 0.00 0.00 0.00 91 990.6
20260506092324 65 266 8.7 10.4 0.00 0.00 0.00 91 990.6
20260506091824 75 269 8.7 11.3 0.00 0.00 0.00 89 980.0
20260506091324 75 274 10.4 11.3 0.00 0.00 0.00 89 980.0
20260506090956 65 269 8.7 10.4 0.00 0.00 0.00 91 990.6
20260506090824 65 269 7.8 11.3 0.00 0.00 0.00 91 990.6
20260506090324 65 269 8.7 12.2 0.00 0.00 0.00 91 990.6
20260506085824 75 268 8.7 11.3 0.00 0.00 0.00 89 979.7
20260506085325 75 269 8.7 11.3 0.00 0.00 0.00 89 979.7
20260506085156 75 271 10.4 10.4 0.00 0.00 0.00 89 979.7
20260506084325 65 268 10.4 11.3 0.00 0.00 0.00 91 990.6
20260506083825 65 269 8.7 11.3 0.00 0.00 0.00 91 990.6
20260506083356 65 268 10.4 11.3 0.00 0.00 0.00 91 990.6
20260506083324 65 266 10.4 11.3 0.00 0.00 0.00 91 990.6
20260506082824 76 272 8.7 11.3 0.00 0.00 0.00 89 979.8
20260506082326 65 269 10.4 11.3 0.00 0.00 0.00 91 990.6
20260506081825 76 267 10.4 11.3 0.00 0.00 0.00 88 979.4
20260506081555 65 266 10.4 11.3 0.00 0.00 0.00 91 990.6
20260506081326 65 267 10.4 11.3 0.00 0.00 0.00 91 990.6
20260506080324 76 268 10.4 11.3 0.00 0.00 0.00 88 979.7
20260506073324 76 268 8.7 10.4 0.00 0.00 0.00 88 980.3
20260506072324 76 269 10.4 11.3 0.00 0.00 0.00 88 980.2
20260506072155 65 269 10.4 10.4 0.00 0.00 0.00 91 990.6
20260506071825 65 267 10.4 11.3 0.00 0.00 0.00 91 990.6
20260506071325 76 265 10.4 11.3 0.00 0.00 0.00 88 980.7
20260506070824 65 266 7.8 12.2 0.00 0.00 0.00 91 990.6
20260506070355 76 270 8.7 11.3 0.00 0.00 0.00 88 980.6
20260506070325 76 268 7.8 11.3 0.00 0.00 0.00 88 980.6
20260506062325 76 269 11.3 13.0 0.00 0.00 0.00 88 980.0
20260506061825 65 271 10.4 13.9 0.00 0.00 0.00 91 990.6
20260506061325 76 271 10.4 12.2 0.00 0.00 0.00 88 980.4
20260506060956 76 268 10.4 12.2 0.00 0.00 0.00 88 980.3
20260506060324 76 274 10.4 14.8 0.00 0.00 0.00 88 980.7
20260506051325 76 267 8.7 13.0 0.00 0.00 0.00 88 980.7
20260506050325 65 265 8.7 13.0 0.00 0.00 0.00 91 990.6
20260506044825 65 263 7.8 11.3 0.00 0.00 0.00 91 990.6
20260506044325 65 265 10.4 13.0 0.00 0.00 0.00 91 990.6
20260506043956 76 273 10.4 11.3 0.00 0.00 0.00 88 980.6
20260506043826 76 271 8.7 11.3 0.00 0.00 0.00 88 980.7
20260506043325 76 271 8.7 11.3 0.00 0.00 0.00 88 980.4
20260506042826 76 269 8.7 11.3 0.00 0.00 0.00 88 980.2
20260506042324 76 268 11.3 12.2 0.00 0.00 0.00 88 980.5
20260506042157 65 271 10.4 11.3 0.00 0.00 0.00 91 990.6
20260506041826 65 265 8.7 12.2 0.00 0.00 0.00 91 990.6
20260506041326 76 274 8.7 11.3 0.00 0.00 0.00 89 980.3
20260506040357 65 269 8.7 11.3 0.00 0.00 0.00 91 990.6
20260506040325 65 269 10.4 11.3 0.00 0.00 0.00 91 990.6
20260506035826 76 272 8.7 11.3 0.00 0.00 0.00 88 979.7
20260506034557 76 268 10.4 11.3 0.00 0.00 0.00 88 980.0
20260506034325 65 271 10.4 12.2 0.00 0.00 0.00 91 990.6
20260506033827 77 268 10.4 11.3 0.00 0.00 0.00 87 979.5
20260506033327 65 265 8.7 11.3 0.00 0.00 0.00 91 990.6
20260506032825 77 262 8.7 12.2 0.00 0.00 0.00 87 979.3
20260506032755 65 263 8.7 12.2 0.00 0.00 0.00 91 990.6
20260506032325 77 267 8.7 13.0 0.00 0.00 0.00 86 979.7
20260506031825 77 270 11.3 12.2 0.00 0.00 0.00 86 979.3
20260506031324 65 264 10.4 13.0 0.00 0.00 0.00 91 990.6
20260506030957 78 280 12.2 12.2 0.00 0.00 0.00 85 979.9
20260506030825 78 272 11.3 12.2 0.00 0.00 0.00 85 979.6
20260506030325 65 271 10.4 13.0 0.00 0.00 0.00 91 990.6
20260506025824 65 268 8.7 13.9 0.00 0.00 0.00 91 990.6
20260506025156 78 271 10.4 12.2 0.00 0.00 0.00 84 978.7
20260506024326 65 272 12.2 13.9 0.00 0.00 0.00 91 990.6
20260506023825 65 267 10.4 11.3 0.00 0.00 0.00 91 990.6
20260506023357 65 266 8.7 13.9 0.00 0.00 0.00 91 990.6
20260506023326 65 265 8.7 13.9 0.00 0.00 0.00 91 990.6
20260506022826 79 269 8.7 13.9 0.00 0.00 0.00 82 979.3
20260506022326 65 270 10.4 14.8 0.00 0.00 0.00 91 990.6
20260506021825 80 266 8.7 12.2 0.00 0.00 0.00 81 978.7
20260506021557 65 269 11.3 12.2 0.00 0.00 0.00 91 990.6
20260506021326 80 264 8.7 11.3 0.00 0.00 0.00 81 978.7